CubeBel 1
1 43666U 18083E 20247.86693579 .00001327 00000-0 67686-4 0 9993
2 43666 97.4862 273.5468 0016650 88.3170 36.4595 15.18394690102510
Changshagaoxin
1 43669U 18083H 20247.75733322 .00000780 00000-0 42348-4 0 9995
2 43669 97.4738 271.3909 0012538 83.2642 277.0018 15.17395780102401
Ten-Koh
1 43677U 18084G 20247.30682636 .00000028 00000-0 87787-5 0 9999
2 43677 097.8909 004.2173 0014587 260.7332 099.2236 14.90311220100539
PO-101
1 43678U 18084H 20247.89257913 .00000087 00000-0 14363-4 0 9994
2 43678 97.8921 6.3302 0008542 280.9663 79.0617 14.91647102100717
IRVINE 01
1 43693U 18088D 20247.41610271 .00002659 00000-0 11037-3 0 9994
2 43693 085.0368 025.3837 0017801 011.6621 348.5030 15.23183023100719
QO-100
1 43700U 18090A 20247.27966119 .00000128 00000-0 00000 0 0 9998
2 43700 0.0125 130.3107 0002093 53.5072 285.5071 1.00273074 6733
Reaktor Hello World
1 43743U 18096AA 20247.71206045 .00001299 00000-0 50792-4 0 9993
2 43743 97.4165 321.1784 0017041 206.5942 153.4425 15.27567432 98342
MinXSS-2
1 43758U 18099A 20247.47103229 .00000570 00000-0 56301-4 0 9998
2 43758 097.7013 318.1204 0014061 290.0335 069.9372 14.95716015095615
AO-95
1 43770U 18099N 20247.75047157 .00000642 00000-0 63869-4 0 9997
2 43770 97.7009 317.7466 0013081 298.5406 61.4498 14.95033899 95610
RANGE-B
1 43772U 18099Q 20247.35898771 .00000598 00000-0 59548-4 0 9990
2 43772 097.7080 317.9621 0012560 285.8094 074.1741 14.95236119095554
RANGE-A
1 43773U 18099R 20247.34098337 .00000564 00000-0 56794-4 0 9993
2 43773 097.6949 316.9250 0011999 285.7438 074.2459 14.94999172095541
MOVE-II
1 43780U 18099Y 20247.47661789 .00000884 00000-0 84969-4 0 9992
2 43780 097.7013 317.7424 0011979 296.3818 063.6173 14.95467093095573
SNUSat 2
1 43782U 18099AA 20247.63089614 .00000178 00000-0 21389-4 0 9996
2 43782 97.7006 317.8692 0011187 284.5384 75.4595 14.95298510 95602
SnugLite
1 43784U 18099AC 20247.46023242 .00000213 00000-0 24442-4 0 9997
2 43784 097.6967 317.5058 0013701 292.8768 067.1006 14.95397243095590
ITASat 1
1 43786U 18099AE 20247.72980740 .00000233 00000-0 26324-4 0 9996
2 43786 97.7021 318.2019 0013784 290.9674 69.0072 14.95363868 95630
EAGLET 1
1 43790U 18099AJ 20247.76884180 -.00000010 00000-0 43011-5 0 9993
2 43790 97.7015 318.5299 0012117 296.9170 63.0812 14.95747870 95351
ESEO
1 43792U 18099AL 20247.78537262 -.00000275 00000-0 -19548-4 0 9994
2 43792 97.6983 318.3301 0011991 292.9968 66.9988 14.95617153 95411
CSIM
1 43793U 18099AM 20247.47067762 .00000709 00000-0 68107-4 0 9999
2 43793 097.6984 318.0561 0011425 289.3906 070.6080 14.96118674095355
Astrocast 0.1
1 43798U 18099AS 20247.68313123 .00000633 00000-0 61676-4 0 9992
2 43798 97.7010 318.5602 0010778 273.4927 86.5061 14.95901456 95643
JO-97
1 43803U 18099AX 20247.66797572 .00000478 00000-0 48274-4 0 9997
2 43803 97.6982 317.9420 0013670 291.3749 68.6013 14.95549361 95622
Suomi 100
1 43804U 18099AY 20247.46872480 .00000485 00000-0 48930-4 0 9995
2 43804 097.6979 317.7311 0013744 292.2686 067.7077 14.95535975095602
Al Farabi 2
1 43805U 18099AZ 20247.77089865 .00000024 00000-0 73685-5 0 9992
2 43805 97.6992 318.1348 0013784 291.6847 68.2906 14.95670385 95656
PWSat 2
1 43814U 18099BJ 20247.18898277 .00031307 00000-0 16222-2 0 9991
2 43814 97.7938 329.7111 0007203 226.7061 133.3571 15.16103110 95483
CHOMPTT
1 43855U 18104G 20247.29455377 .00001008 00000-0 40821-4 0 9994
2 43855 085.0368 123.7188 0019390 121.0663 239.2486 15.23087182095373
ISAT
1 43879U 18111D 20247.74131665 .00000392 00000-0 39764-4 0 9998
2 43879 97.6946 153.8897 0012858 348.9535 11.1403 14.96287891 90178
UWE-4
1 43880U 18111E 20247.70882575 .00000253 00000-0 27355-4 0 9998
2 43880 97.6968 154.1692 0012205 352.3340 7.7693 14.96541594 90197
Sparrow
1 43881U 18111F 20247.28776665 .00000755 00000-0 71377-4 0 9994
2 43881 097.6969 153.8380 0012124 350.9522 009.1479 14.96578688092133
Lume 1
1 43908U 18111AJ 20247.71675314 .00001045 00000-0 44261-4 0 9996
2 43908 97.2564 145.3182 0019859 223.3282 136.6396 15.25175062 93951
FO-98
1 43933U 19003B 20247.68453597 .00000705 00000-0 33539-4 0 9996
2 43933 97.2233 294.4001 0016866 331.3779 28.6530 15.22211300 90437
FO-99
1 43937U 19003F 20247.66832390 .00001209 00000-0 51634-4 0 9996
2 43937 97.2196 295.8515 0022498 310.9114 49.0175 15.24551895 90551
Delphini 1
1 44030U 98067PW 20247.49242861 .00021618 00000-0 18729-3 0 9990
2 44030 051.6320 277.7088 0004943 028.2617 331.8647 15.69075755090758
MYSat 1
1 44045U 18092F 20247.41758620 .00002629 00000-0 82007-4 0 9995
2 44045 051.6402 023.6331 0010703 245.1831 114.8040 15.37028576087276
AstroCast 0.2
1 44083U 19018F 20247.74147603 .00000693 00000-0 33663-4 0 9998
2 44083 97.4145 307.6792 0011486 255.9236 104.0723 15.21700140 79281
AISTechSat 3
1 44103U 19018AB 20247.80710358 .00001031 00000-0 46441-4 0 9996
2 44103 97.4021 307.9622 0011822 273.0383 182.1359 15.23276452 79367
AISat 1
1 44104U 19018AC 20247.53016872 .00000731 00000-0 25851-4 0 9995
2 44104 097.4586 317.6756 0056433 296.3743 063.1711 15.31175135079753
Raavana-1
1 44329U 98067QE 20247.41930953 .00010602 00000-0 13812-3 0 9998
2 44329 051.6390 302.9151 0005309 305.8950 054.1549 15.59328619069165
Uguisu
1 44330U 98067QF 20247.43649971 .00010392 00000-0 13603-3 0 9993
2 44330 051.6367 303.0065 0005265 305.2310 054.8190 15.59225464069143
NepaliSat-1
1 44331U 98067QG 20247.53906716 .00010069 00000-0 13142-3 0 9997
2 44331 051.6368 302.1940 0005386 308.9192 051.1320 15.59345402069172
Prox-1
1 44339U 19036A 20247.62862188 .00000914 00000-0 16691-3 0 9998
2 44339 24.0009 339.9541 0010910 289.6758 70.2556 14.53093258 63510
Oculus-ASR
1 44348U 19036K 20247.27953407 .00011500 00000-0 16796-3 0 9993
2 44348 28.5132 232.4184 0362193 58.7912 304.7658 15.03884037 65526
Armadillo
1 44352U 19036P 20247.27262950 .00014288 00000-0 20567-3 0 9991
2 44352 028.5284 225.9959 0347573 068.2508 295.4704 15.07227578065532
NO-104
1 44354U 19036R 20247.29022739 .00011967 00000-0 17166-3 0 9996
2 44354 028.5276 228.9485 0358820 063.1266 300.5538 15.04966477065554
NO-103
1 44355U 19036S 20247.25562266 .00019020 00000-0 25677-3 0 9991
2 44355 028.5273 215.9406 0332481 084.2663 279.5733 15.11698405065688
CP9
1 44360U 19036X 20247.18922824 .00031916 -53613-5 34339-3 0 9996
2 44360 28.5101 195.8465 0307899 117.9798 245.2307 15.20540386 65741
Move-IIb
1 44398U 19038N 20247.42539603 .00001224 00000-0 73741-4 0 9991
2 44398 097.5427 207.6978 0023938 216.1708 143.7904 15.12474624064366
SONATE
1 44400U 19038Q 20247.48065852 .00000373 00000-0 25397-4 0 9999
2 44400 097.5470 207.7609 0024168 214.7084 145.2570 15.12023274064364
BeeSat 9
1 44412U 19038AC 20247.60859618 .00000734 00000-0 45854-4 0 9998
2 44412 97.5454 208.0000 0021487 219.3831 140.5838 15.12409229 64082
JAISAT-1
1 44419U 19038F 20247.67006673 .00000763 00000-0 46925-4 0 9999
2 44419 97.5457 208.3844 0020377 217.8866 142.0932 15.12893313 64420
LightSail-2
1 44420U 19036AC 20247.66142993 .00006767 00000-0 14480-2 0 9993
2 44420 24.0076 333.3993 0017277 301.4473 58.4330 14.56309697 61723
Taurus 1
1 44530U 19059C 20247.74181208 .00000653 00000-0 19751-3 0 9996
2 44530 98.5676 329.5774 0013498 286.5670 73.4058 14.45606206 51653
MO-106
1 44830U 19084G 20247.62788473 .00138183 89119-5 43569-3 0 9998
2 44830 96.9582 118.0348 0013528 287.5284 72.4512 15.91200082 42825
